Time,TemperatureF,DewpointF,PressureIn,WindDirection,WindDirectionDegrees,WindSpeedMPH,WindSpeedGustMPH,Humidity,HourlyPrecipIn,Conditions,Clouds,dailyrainin,SoftwareType,DateUTC
2013-09-05 00:09:00,64.7,63.0,30.10,WSW,257,0.0,0.0,94,0.00,,,0.00,weatherlink.com 1.10,2013-09-05 05:09:00,
2013-09-05 00:24:00,64.0,62.0,30.10,NW,307,2.0,3.0,94,0.00,,,0.00,weatherlink.com 1.10,2013-09-05 05:24:00,
2013-09-05 00:39:00,63.5,62.0,30.11,NW,326,0.0,1.0,94,0.00,,,0.00,weatherlink.com 1.10,2013-09-05 05:39:00,
2013-09-05 00:54:00,63.4,62.0,30.11,NW,326,0.0,0.0,95,0.00,,,0.00,weatherlink.com 1.10,2013-09-05 05:54:00,
2013-09-05 01:09:00,63.5,62.0,30.11,NW,326,0.0,1.0,95,0.00,,,0.00,weatherlink.com 1.10,2013-09-05 06:09:00,
2013-09-05 01:24:00,63.5,62.0,30.11,NW,326,0.0,0.0,95,0.00,,,0.00,weatherlink.com 1.10,2013-09-05 06:24:00,
2013-09-05 01:39:00,63.6,63.0,30.12,NW,326,0.0,2.0,96,0.00,,,0.00,weatherlink.com 1.10,2013-09-05 06:39:00,
2013-09-05 01:54:00,63.8,63.0,30.12,NW,326,0.0,1.0,96,0.00,,,0.00,weatherlink.com 1.10,2013-09-05 06:54:00,
2013-09-05 02:09:00,64.4,64.0,30.13,NNW,327,1.0,1.0,97,0.00,,,0.00,weatherlink.com 1.10,2013-09-05 07:09:00,
2013-09-05 02:24:00,64.9,64.0,30.13,NNW,327,0.0,1.0,97,0.00,,,0.00,weatherlink.com 1.10,2013-09-05 07:24:00,
2013-09-05 02:39:00,65.3,65.0,30.13,NNW,327,0.0,1.0,97,0.00,,,0.00,weatherlink.com 1.10,2013-09-05 07:39:00,
2013-09-05 02:54:00,65.8,65.0,30.13,NNW,342,0.0,1.0,98,0.00,,,0.00,weatherlink.com 1.10,2013-09-05 07:54:00,
2013-09-05 03:09:00,66.1,66.0,30.13,NNW,344,0.0,1.0,98,0.00,,,0.00,weatherlink.com 1.10,2013-09-05 08:09:00,
2013-09-05 03:24:00,66.1,66.0,30.13,NNW,344,0.0,1.0,98,0.00,,,0.00,weatherlink.com 1.10,2013-09-05 08:24:00,
2013-09-05 03:39:00,66.2,65.0,30.13,NNW,345,1.0,1.0,97,0.00,,,0.00,weatherlink.com 1.10,2013-09-05 08:39:00,
2013-09-05 03:54:00,66.3,66.0,30.13,NNW,345,0.0,1.0,97,0.00,,,0.00,weatherlink.com 1.10,2013-09-05 08:54:00,
2013-09-05 04:09:00,66.3,66.0,30.14,NNW,345,1.0,2.0,97,0.00,,,0.00,weatherlink.com 1.10,2013-09-05 09:09:00,
2013-09-05 04:24:00,66.3,66.0,30.14,NNW,345,1.0,2.0,97,0.00,,,0.00,weatherlink.com 1.10,2013-09-05 09:24:00,
2013-09-05 04:39:00,66.3,66.0,30.14,NNW,345,1.0,2.0,97,0.00,,,0.00,weatherlink.com 1.10,2013-09-05 09:39:00,
2013-09-05 05:09:00,66.3,65.0,30.15,NNW,345,0.0,0.0,96,0.00,,,0.00,weatherlink.com 1.10,2013-09-05 10:09:00,
2013-09-05 05:24:00,66.1,65.0,30.15,NNW,345,0.0,0.0,96,0.00,,,0.00,weatherlink.com 1.10,2013-09-05 10:24:00,
2013-09-05 05:39:00,65.9,65.0,30.16,NNW,345,0.0,0.0,96,0.00,,,0.00,weatherlink.com 1.10,2013-09-05 10:39:00,
2013-09-05 05:54:00,65.8,65.0,30.16,NNW,345,0.0,0.0,96,0.00,,,0.00,weatherlink.com 1.10,2013-09-05 10:54:00,
2013-09-05 06:09:00,65.8,65.0,30.16,NNW,345,0.0,0.0,96,0.00,,,0.00,weatherlink.com 1.10,2013-09-05 11:09:00,
2013-09-05 06:24:00,65.8,65.0,30.17,NNW,331,0.0,5.0,96,0.00,,,0.00,weatherlink.com 1.10,2013-09-05 11:24:00,
2013-09-05 06:40:00,65.6,64.0,30.17,NNW,331,0.0,0.0,95,0.00,,,0.00,weatherlink.com 1.10,2013-09-05 11:40:00,
2013-09-05 06:54:00,65.5,64.0,30.18,North,5,0.0,1.0,95,0.00,,,0.00,weatherlink.com 1.10,2013-09-05 11:54:00,
2013-09-05 07:10:00,65.3,64.0,30.18,North,5,0.0,2.0,94,0.00,,,0.00,weatherlink.com 1.10,2013-09-05 12:10:00,
2013-09-05 07:25:00,65.1,63.0,30.19,North,5,0.0,1.0,93,0.00,,,0.00,weatherlink.com 1.10,2013-09-05 12:25:00,
2013-09-05 07:40:00,65.0,63.0,30.19,North,5,0.0,0.0,92,0.00,,,0.00,weatherlink.com 1.10,2013-09-05 12:40:00,
2013-09-05 07:55:00,65.0,62.0,30.19,North,5,1.0,2.0,90,0.00,,,0.00,weatherlink.com 1.10,2013-09-05 12:55:00,
2013-09-05 08:10:00,65.2,62.0,30.20,NE,44,2.0,2.0,89,0.00,,,0.00,weatherlink.com 1.10,2013-09-05 13:10:00,
2013-09-05 08:25:00,65.6,62.0,30.19,ENE,76,1.0,3.0,89,0.00,,,0.00,weatherlink.com 1.10,2013-09-05 13:25:00,
2013-09-05 08:40:00,66.1,63.0,30.20,East,86,2.0,4.0,88,0.00,,,0.00,weatherlink.com 1.10,2013-09-05 13:40:00,
2013-09-05 08:55:00,66.5,63.0,30.20,ENE,74,1.0,3.0,87,0.00,,,0.00,weatherlink.com 1.10,2013-09-05 13:55:00,
2013-09-05 09:10:00,66.7,62.0,30.20,East,80,1.0,3.0,85,0.00,,,0.00,weatherlink.com 1.10,2013-09-05 14:10:00,
2013-09-05 09:25:00,67.0,61.0,30.21,East,83,3.0,5.0,80,0.00,,,0.00,weatherlink.com 1.10,2013-09-05 14:25:00,
2013-09-05 09:40:00,67.1,59.0,30.21,East,98,3.0,5.0,75,0.00,,,0.00,weatherlink.com 1.10,2013-09-05 14:40:00,
2013-09-05 09:55:00,67.8,58.0,30.22,East,87,2.0,7.0,71,0.00,,,0.00,weatherlink.com 1.10,2013-09-05 14:55:00,
2013-09-05 10:10:00,68.9,57.0,30.22,ENE,65,4.0,9.0,67,0.00,,,0.00,weatherlink.com 1.10,2013-09-05 15:10:00,
2013-09-05 10:25:00,69.9,58.0,30.22,ESE,117,5.0,6.0,65,0.00,,,0.00,weatherlink.com 1.10,2013-09-05 15:25:00,
2013-09-05 10:40:00,69.8,57.0,30.23,ENE,74,3.0,7.0,65,0.00,,,0.00,weatherlink.com 1.10,2013-09-05 15:40:00,
2013-09-05 10:55:00,70.1,57.0,30.23,ENE,61,4.0,8.0,64,0.00,,,0.00,weatherlink.com 1.10,2013-09-05 15:55:00,
2013-09-05 11:10:00,70.3,57.0,30.23,ENE,76,3.0,5.0,63,0.00,,,0.00,weatherlink.com 1.10,2013-09-05 16:10:00,
2013-09-05 11:25:00,70.4,58.0,30.23,East,98,5.0,7.0,65,0.00,,,0.00,weatherlink.com 1.10,2013-09-05 16:25:00,
2013-09-05 11:40:00,70.0,57.0,30.23,ENE,74,2.0,5.0,64,0.00,,,0.00,weatherlink.com 1.10,2013-09-05 16:40:00,
2013-09-05 11:55:00,70.4,57.0,30.23,East,101,1.0,4.0,63,0.00,,,0.00,weatherlink.com 1.10,2013-09-05 16:55:00,
2013-09-05 12:10:00,71.2,58.0,30.23,ESE,117,1.0,5.0,63,0.00,,,0.00,weatherlink.com 1.10,2013-09-05 17:10:00,
2013-09-05 12:25:00,72.0,60.0,30.23,ESE,104,1.0,6.0,66,0.00,,,0.00,weatherlink.com 1.10,2013-09-05 17:25:00,
2013-09-05 12:40:00,73.0,58.0,30.23,East,90,2.0,5.0,60,0.00,,,0.00,weatherlink.com 1.10,2013-09-05 17:40:00,
2013-09-05 12:55:00,73.5,59.0,30.23,SSE,153,2.0,6.0,60,0.00,,,0.00,weatherlink.com 1.10,2013-09-05 17:55:00,
2013-09-05 13:10:00,73.9,59.0,30.23,East,91,1.0,6.0,60,0.00,,,0.00,weatherlink.com 1.10,2013-09-05 18:10:00,
2013-09-05 13:25:00,74.8,61.0,30.23,ENE,74,3.0,4.0,62,0.00,,,0.00,weatherlink.com 1.10,2013-09-05 18:25:00,
2013-09-05 13:40:00,74.1,60.0,30.23,ESE,111,2.0,4.0,61,0.00,,,0.00,weatherlink.com 1.10,2013-09-05 18:40:00,
2013-09-05 13:55:00,74.7,61.0,30.22,East,92,2.0,5.0,62,0.00,,,0.00,weatherlink.com 1.10,2013-09-05 18:55:00,
2013-09-05 14:10:00,74.6,62.0,30.22,East,82,2.0,5.0,65,0.00,,,0.00,weatherlink.com 1.10,2013-09-05 19:10:00,
2013-09-05 14:25:00,74.9,61.0,30.21,East,99,3.0,5.0,63,0.00,,,0.00,weatherlink.com 1.10,2013-09-05 19:25:00,
2013-09-05 14:40:00,74.9,61.0,30.21,ENE,78,1.0,7.0,63,0.00,,,0.00,weatherlink.com 1.10,2013-09-05 19:40:00,
2013-09-05 14:55:00,74.7,61.0,30.21,East,90,1.0,5.0,63,0.00,,,0.00,weatherlink.com 1.10,2013-09-05 19:55:00,
2013-09-05 15:10:00,74.0,60.0,30.20,East,93,2.0,5.0,62,0.00,,,0.00,weatherlink.com 1.10,2013-09-05 20:10:00,
2013-09-05 15:25:00,74.3,60.0,30.20,ESE,103,2.0,4.0,61,0.00,,,0.00,weatherlink.com 1.10,2013-09-05 20:25:00,
2013-09-05 15:40:00,74.4,61.0,30.20,ENE,73,2.0,5.0,64,0.00,,,0.00,weatherlink.com 1.10,2013-09-05 20:40:00,
2013-09-05 15:55:00,74.4,60.0,30.20,ENE,74,1.0,6.0,62,0.00,,,0.00,weatherlink.com 1.10,2013-09-05 20:55:00,
2013-09-05 16:10:00,74.2,60.0,30.20,East,84,2.0,4.0,61,0.00,,,0.00,weatherlink.com 1.10,2013-09-05 21:10:00,
2013-09-05 16:25:00,73.9,61.0,30.20,ENE,74,3.0,4.0,64,0.00,,,0.00,weatherlink.com 1.10,2013-09-05 21:25:00,
2013-09-05 16:40:00,73.6,59.0,30.20,East,95,2.0,4.0,61,0.00,,,0.00,weatherlink.com 1.10,2013-09-05 21:40:00,
2013-09-05 16:55:00,73.4,60.0,30.19,East,81,2.0,4.0,63,0.00,,,0.00,weatherlink.com 1.10,2013-09-05 21:55:00,
2013-09-05 17:10:00,73.4,60.0,30.19,East,98,2.0,3.0,63,0.00,,,0.00,weatherlink.com 1.10,2013-09-05 22:10:00,
2013-09-05 17:25:00,73.3,59.0,30.19,ESE,104,2.0,3.0,61,0.00,,,0.00,weatherlink.com 1.10,2013-09-05 22:25:00,
2013-09-05 17:40:00,73.1,59.0,30.20,ESE,104,1.0,3.0,62,0.00,,,0.00,weatherlink.com 1.10,2013-09-05 22:40:00,
2013-09-05 17:56:00,73.0,59.0,30.19,ESE,106,0.0,3.0,62,0.00,,,0.00,weatherlink.com 1.10,2013-09-05 22:56:00,
2013-09-05 18:11:00,73.4,60.0,30.20,ESE,106,0.0,2.0,63,0.00,,,0.00,weatherlink.com 1.10,2013-09-05 23:11:00,
2013-09-05 18:26:00,73.0,59.0,30.19,ESE,106,1.0,2.0,61,0.00,,,0.00,weatherlink.com 1.10,2013-09-05 23:26:00,
2013-09-05 18:41:00,71.7,58.0,30.19,ESE,105,1.0,1.0,63,0.00,,,0.00,weatherlink.com 1.10,2013-09-05 23:41:00,
2013-09-05 18:56:00,70.1,58.0,30.19,ESE,105,0.0,1.0,66,0.00,,,0.00,weatherlink.com 1.10,2013-09-05 23:56:00,
2013-09-05 19:11:00,68.6,58.0,30.19,ESE,105,0.0,1.0,69,0.00,,,0.00,weatherlink.com 1.10,2013-09-06 00:11:00,
2013-09-05 19:26:00,67.0,57.0,30.19,ESE,105,0.0,2.0,70,0.00,,,0.00,weatherlink.com 1.10,2013-09-06 00:26:00,
2013-09-05 19:56:00,64.6,57.0,30.20,ESE,105,1.0,2.0,76,0.00,,,0.00,weatherlink.com 1.10,2013-09-06 00:56:00,
2013-09-05 20:11:00,63.6,57.0,30.21,ESE,105,1.0,2.0,78,0.00,,,0.00,weatherlink.com 1.10,2013-09-06 01:11:00,
2013-09-05 20:26:00,62.6,56.0,30.21,ESE,105,1.0,2.0,78,0.00,,,0.00,weatherlink.com 1.10,2013-09-06 01:26:00,
2013-09-05 20:41:00,61.8,55.0,30.21,ESE,105,0.0,2.0,78,0.00,,,0.00,weatherlink.com 1.10,2013-09-06 01:41:00,
2013-09-05 20:56:00,61.1,55.0,30.21,ESE,105,0.0,0.0,79,0.00,,,0.00,weatherlink.com 1.10,2013-09-06 01:56:00,
2013-09-05 21:11:00,60.4,54.0,30.21,ESE,105,2.0,2.0,80,0.00,,,0.00,weatherlink.com 1.10,2013-09-06 02:11:00,
2013-09-05 21:26:00,59.8,54.0,30.21,ESE,116,1.0,3.0,81,0.00,,,0.00,weatherlink.com 1.10,2013-09-06 02:26:00,
2013-09-05 21:41:00,59.3,54.0,30.22,NE,52,1.0,2.0,82,0.00,,,0.00,weatherlink.com 1.10,2013-09-06 02:41:00,
2013-09-05 21:56:00,58.9,53.0,30.22,NE,52,0.0,2.0,82,0.00,,,0.00,weatherlink.com 1.10,2013-09-06 02:56:00,
2013-09-05 22:11:00,58.5,53.0,30.22,NE,52,1.0,2.0,82,0.00,,,0.00,weatherlink.com 1.10,2013-09-06 03:11:00,
2013-09-05 22:26:00,58.2,53.0,30.22,NE,52,0.0,2.0,83,0.00,,,0.00,weatherlink.com 1.10,2013-09-06 03:26:00,
2013-09-05 22:41:00,58.0,53.0,30.22,NE,52,0.0,1.0,84,0.00,,,0.00,weatherlink.com 1.10,2013-09-06 03:41:00,
2013-09-05 22:56:00,57.8,53.0,30.22,NE,52,0.0,1.0,84,0.00,,,0.00,weatherlink.com 1.10,2013-09-06 03:56:00,
2013-09-05 23:11:00,57.8,53.0,30.21,NE,52,1.0,2.0,83,0.00,,,0.00,weatherlink.com 1.10,2013-09-06 04:11:00,
2013-09-05 23:26:00,57.7,53.0,30.22,NE,52,0.0,1.0,83,0.00,,,0.00,weatherlink.com 1.10,2013-09-06 04:26:00,
2013-09-05 23:41:00,57.5,52.0,30.21,NE,52,0.0,2.0,83,0.00,,,0.00,weatherlink.com 1.10,2013-09-06 04:41:00,
2013-09-05 23:56:00,57.4,53.0,30.20,NE,52,0.0,1.0,84,0.00,,,0.00,weatherlink.com 1.10,2013-09-06 04:56:00,